Murray, KY

7:22 AM CDT on May 26, 2017 (GMT -0500)
Kyle-Oakley

Weather History for KCEY - November, 2012

Change the Weather History Date:

Friday, November 30, 2012

  Actual Average (KPAH) Record (KPAH)
Temperature  
Mean Temperature 50 °F -  
Max Temperature 60 °F 52 °F 72 °F (1970)
Min Temperature 41 °F 33 °F 11 °F (1964)
Degree Days  
Heating Degree Days 14    
Moisture  
Dew Point 37 °F    
Average Humidity 60    
Maximum Humidity 81    
Minimum Humidity 42    
Precipitation  
Precipitation 0.00 in - - ()
Sea Level Pressure  
Sea Level Pressure 30.23 in    
Wind  
Wind Speed 7 mph (SSW)    
Max Wind Speed 13 mph    
Max Gust Speed 20 mph    
Visibility 10 miles    
Events      
Averages and records for this station are not official NWS values.
T = Trace of Precipitation, MM = Missing Value Source: NWS Daily Summary

Daily Weather History Graph

Daily Weather History Graph

Search for Another Location

Airport or City:

Trip Planner

Search our weather history database for the weather conditions in past years. The results will help you decide how hot, cold, wet, or windy it might be!

Date:

Astronomy

Nov. 30, 2012 Rise Set
Actual Time 6:46 AM CST 4:37 PM CST
Civil Twilight 6:18 AM CST 5:06 PM CST
Nautical Twilight 5:46 AM CST 5:38 PM CST
Astronomical Twilight 5:15 AM CST 6:09 PM CST
Moon 6:32 PM CST (11/30) 8:18 AM CST (11/30)
Length of Visible Light 10h 47m
Length of Day
9h 51m
Waning Gibbous, 96% of the Moon is Illuminated
Nov 30
Waning Gibbous
Dec 6
Last Quarter
Dec 13
New
Dec 19
First Quarter
Dec 28
Full

Hourly Weather History & Observations

Time (CST) Temp. Windchill Dew Point Humidity Pressure Visibility Wind Dir Wind Speed Gust Speed Precip Events Conditions
12:15 AM 44.6 °F 40.7 °F 26.6 °F 49% 30.25 in 10.0 mi South 6.9 mph - N/A   Clear
12:35 AM 44.6 °F 41.4 °F 26.6 °F 49% 30.25 in 10.0 mi South 5.8 mph - N/A   Clear
12:55 AM 44.6 °F 40.7 °F 26.6 °F 49% 30.25 in 10.0 mi South 6.9 mph - N/A   Clear
1:15 AM 44.6 °F 40.7 °F 26.6 °F 49% 30.25 in 10.0 mi South 6.9 mph - N/A   Clear
1:35 AM 44.6 °F 40.2 °F 26.6 °F 49% 30.25 in 10.0 mi South 8.1 mph - N/A   Clear
1:55 AM 44.6 °F 40.2 °F 28.4 °F 53% 30.24 in 10.0 mi South 8.1 mph - N/A   Clear
2:15 AM 44.6 °F 41.4 °F 28.4 °F 53% 30.25 in 10.0 mi SSW 5.8 mph - N/A   Clear
2:35 AM 46.4 °F 42.4 °F 30.2 °F 53% 30.26 in 10.0 mi SSW 8.1 mph - N/A   Clear
2:55 AM 44.6 °F 40.2 °F 30.2 °F 57% 30.25 in 10.0 mi SSW 8.1 mph - N/A   Clear
3:15 AM 44.6 °F 42.2 °F 30.2 °F 57% 30.26 in 10.0 mi SSW 4.6 mph - N/A   Clear
3:35 AM 44.6 °F 41.4 °F 30.2 °F 57% 30.26 in 10.0 mi South 5.8 mph - N/A   Clear
3:55 AM 41.0 °F 36.4 °F 32.0 °F 70% 30.25 in 10.0 mi South 6.9 mph - N/A   Clear
4:15 AM 41.0 °F 35.8 °F 32.0 °F 70% 30.25 in 10.0 mi South 8.1 mph - N/A   Clear
4:35 AM 41.0 °F 35.8 °F 32.0 °F 70% 30.25 in 10.0 mi South 8.1 mph - N/A   Clear
4:55 AM 41.0 °F 36.4 °F 32.0 °F 70% 30.26 in 10.0 mi South 6.9 mph - N/A   Clear
5:15 AM 41.0 °F 37.1 °F 32.0 °F 70% 30.26 in 10.0 mi South 5.8 mph - N/A   Clear
5:35 AM 41.0 °F 38.0 °F 32.0 °F 70% 30.26 in 10.0 mi South 4.6 mph - N/A   Clear
5:55 AM 41.0 °F 37.1 °F 32.0 °F 70% 30.26 in 10.0 mi SSW 5.8 mph - N/A   Clear
6:15 AM 41.0 °F 36.4 °F 33.8 °F 76% 30.26 in 10.0 mi South 6.9 mph - N/A   Clear
6:35 AM 41.0 °F 35.8 °F 35.6 °F 81% 30.26 in 10.0 mi South 8.1 mph - N/A   Clear
6:55 AM 41.0 °F 35.8 °F 33.8 °F 76% 30.26 in 10.0 mi South 8.1 mph - N/A   Clear
7:15 AM 41.0 °F 37.1 °F 33.8 °F 76% 30.26 in 10.0 mi SSE 5.8 mph - N/A   Clear
7:35 AM 41.0 °F 35.8 °F 35.6 °F 81% 30.26 in 10.0 mi South 8.1 mph - N/A   Clear
7:55 AM 42.8 °F 37.5 °F 35.6 °F 76% 30.26 in 10.0 mi South 9.2 mph - N/A   Clear
8:15 AM 44.6 °F 39.7 °F 37.4 °F 76% 30.26 in 10.0 mi SSW 9.2 mph - N/A   Clear
8:35 AM 46.4 °F 41.9 °F 37.4 °F 71% 30.26 in 10.0 mi South 9.2 mph - N/A   Clear
8:55 AM 48.2 °F - 39.2 °F 71% 30.26 in 10.0 mi South 10.4 mph 18.4 mph N/A   Clear
9:15 AM 48.2 °F - 39.2 °F 71% 30.26 in 10.0 mi SSW 9.2 mph 19.6 mph N/A   Clear
9:35 AM 50.0 °F - 39.2 °F 66% 30.27 in 10.0 mi SSW 9.2 mph 17.3 mph N/A   Clear
9:55 AM 50.0 °F - 41.0 °F 71% 30.27 in 10.0 mi South 10.4 mph 18.4 mph N/A   Clear
10:15 AM 53.6 °F - 41.0 °F 62% 30.26 in 10.0 mi SW 9.2 mph - N/A   Clear
10:35 AM 55.4 °F - 41.0 °F 58% 30.26 in 10.0 mi SSW 11.5 mph 17.3 mph N/A   Clear
10:55 AM 55.4 °F - 41.0 °F 58% 30.26 in 10.0 mi SW 9.2 mph - N/A   Clear
11:15 AM 57.2 °F - 41.0 °F 55% 30.25 in 10.0 mi SSW 8.1 mph - N/A   Clear
11:35 AM 57.2 °F - 41.0 °F 55% 30.23 in 10.0 mi SSW 11.5 mph 17.3 mph N/A   Clear
11:55 AM 57.2 °F - 41.0 °F 55% 30.22 in 10.0 mi SW 11.5 mph 17.3 mph N/A   Clear
12:15 PM 59.0 °F - 39.2 °F 48% 30.21 in 10.0 mi SSW 10.4 mph 17.3 mph N/A   Clear
12:35 PM 59.0 °F - 39.2 °F 48% 30.20 in 10.0 mi SSW 9.2 mph 16.1 mph N/A   Mostly Cloudy
12:55 PM 59.0 °F - 39.2 °F 48% 30.19 in 10.0 mi SSW 9.2 mph - N/A   Mostly Cloudy
1:15 PM 60.8 °F - 39.2 °F 45% 30.18 in 10.0 mi SW 10.4 mph - N/A   Partly Cloudy
1:35 PM 60.8 °F - 37.4 °F 42% 30.18 in 10.0 mi SSW 12.7 mph 17.3 mph N/A   Clear
1:55 PM 60.8 °F - 37.4 °F 42% 30.17 in 10.0 mi South 11.5 mph - N/A   Clear
2:15 PM 60.8 °F - 37.4 °F 42% 30.17 in 10.0 mi SW 8.1 mph - N/A   Clear
2:35 PM 60.8 °F - 39.2 °F 45% 30.17 in 10.0 mi SSW 6.9 mph 18.4 mph N/A   Partly Cloudy
2:55 PM 59.0 °F - 39.2 °F 48% 30.17 in 10.0 mi SSW 5.8 mph - N/A   Mostly Cloudy
3:15 PM 59.0 °F - 39.2 °F 48% 30.17 in 10.0 mi SSW 6.9 mph - N/A   Mostly Cloudy
3:35 PM 59.0 °F - 39.2 °F 48% 30.18 in 10.0 mi SSW 8.1 mph - N/A   Scattered Clouds
3:55 PM 59.0 °F - 41.0 °F 51% 30.18 in 10.0 mi SSW 3.5 mph - N/A   Mostly Cloudy
4:15 PM 59.0 °F - 41.0 °F 51% 30.19 in 10.0 mi SSW 5.8 mph - N/A   Overcast
4:35 PM 59.0 °F - 41.0 °F 51% 30.19 in 10.0 mi SSW 4.6 mph - N/A   Overcast
4:55 PM 57.2 °F - 41.0 °F 55% 30.19 in 10.0 mi South 5.8 mph - N/A   Overcast
5:15 PM 57.2 °F - 41.0 °F 55% 30.20 in 10.0 mi SSW 4.6 mph - N/A   Overcast
5:35 PM 57.2 °F - 41.0 °F 55% 30.20 in 10.0 mi South 4.6 mph - N/A   Overcast
5:55 PM 55.4 °F - 41.0 °F 58% 30.20 in 10.0 mi South 3.5 mph - N/A   Overcast
6:15 PM 55.4 °F - 41.0 °F 58% 30.20 in 10.0 mi South 5.8 mph - N/A   Overcast
6:35 PM 55.4 °F - 41.0 °F 58% 30.20 in 10.0 mi South 6.9 mph - N/A   Mostly Cloudy
6:55 PM 55.4 °F - 41.0 °F 58% 30.20 in 10.0 mi South 5.8 mph - N/A   Scattered Clouds
7:15 PM 53.6 °F - 41.0 °F 62% 30.20 in 10.0 mi South 5.8 mph - N/A   Partly Cloudy
7:35 PM 53.6 °F - 41.0 °F 62% 30.20 in 10.0 mi SSE 4.6 mph - N/A   Clear
7:55 PM 53.6 °F - 41.0 °F 62% 30.20 in 10.0 mi South 5.8 mph - N/A   Mostly Cloudy
8:15 PM 53.6 °F - 41.0 °F 62% 30.20 in 10.0 mi South 4.6 mph - N/A   Mostly Cloudy
8:35 PM 53.6 °F - 41.0 °F 62% 30.20 in 10.0 mi South 4.6 mph - N/A   Mostly Cloudy
9:15 PM 51.8 °F - 41.0 °F 67% 30.21 in 10.0 mi South 5.8 mph - N/A   Overcast
9:35 PM 51.8 °F - 41.0 °F 67% 30.21 in 10.0 mi South 5.8 mph - N/A   Mostly Cloudy
9:55 PM 51.8 °F - 41.0 °F 67% 30.21 in 10.0 mi South 4.6 mph - N/A   Mostly Cloudy
10:15 PM 51.8 °F - 41.0 °F 67% 30.21 in 10.0 mi South 4.6 mph - N/A   Mostly Cloudy
10:35 PM 51.8 °F - 41.0 °F 67% 30.21 in 10.0 mi South 6.9 mph - N/A   Mostly Cloudy
11:15 PM 50.0 °F - 41.0 °F 71% 30.22 in 10.0 mi SSW 5.8 mph - N/A   Mostly Cloudy
11:35 PM 50.0 °F - 41.0 °F 71% 30.22 in 10.0 mi South 6.9 mph - N/A   Partly Cloudy
11:55 PM 50.0 °F - 41.0 °F 71% 30.22 in 10.0 mi South 6.9 mph - N/A   Mostly Cloudy